| time (UTC) | temp C | wind direction | speed KPH | gust KPH | rain 1hr cm | rain 24hr cm | rain mn cm | humidity % | barometer mb |
| 20260506045048 | 20 | 0 | 0.0 | 8.0 | 0.00 | 0.00 | 0.00 | 58 | 1013.3 |
| 20260506044557 | 20 | 224 | 0.0 | 6.4 | 0.00 | 0.00 | 0.00 | 58 | 1013.3 |
| 20260506044046 | 20 | 0 | 0.0 | 6.4 | 0.00 | 0.00 | 0.00 | 57 | 1013.3 |
| 20260506043548 | 20 | 253 | 0.0 | 6.4 | 0.00 | 0.00 | 0.00 | 57 | 1013.8 |
| 20260506043057 | 20 | 225 | 0.0 | 4.8 | 0.00 | 0.00 | 0.00 | 57 | 1013.8 |
| 20260506042548 | 20 | 0 | 0.0 | 4.8 | 0.00 | 0.00 | 0.00 | 57 | 1014.0 |
| 20260506042049 | 20 | 0 | 0.0 | 4.8 | 0.00 | 0.00 | 0.00 | 57 | 1013.8 |
| 20260506041606 | 20 | 229 | 0.0 | 11.3 | 0.00 | 0.00 | 0.00 | 57 | 1013.9 |
| 20260506041047 | 20 | 0 | 1.6 | 11.3 | 0.00 | 0.00 | 0.00 | 57 | 1013.8 |
| 20260506040548 | 20 | 0 | 0.0 | 6.4 | 0.00 | 0.00 | 0.00 | 57 | 1013.7 |
| 20260506040109 | 20 | 163 | 0.0 | 6.4 | 0.00 | 0.00 | 0.00 | 57 | 1013.7 |
| 20260506035547 | 20 | 192 | 0.0 | 3.2 | 0.00 | 0.00 | 0.00 | 57 | 1013.7 |
| 20260506035044 | 20 | 0 | 0.0 | 3.2 | 0.00 | 0.00 | 0.00 | 56 | 1013.9 |
| 20260506034551 | 20 | 0 | 0.0 | 3.2 | 0.00 | 0.00 | 0.00 | 56 | 1013.6 |
| 20260506034047 | 20 | 270 | 0.0 | 4.8 | 0.00 | 0.00 | 0.00 | 56 | 1013.4 |
| 20260506033546 | 20 | 0 | 0.0 | 4.8 | 0.00 | 0.00 | 0.00 | 55 | 1013.6 |
| 20260506033050 | 20 | 0 | 1.6 | 4.8 | 0.00 | 0.00 | 0.00 | 55 | 1013.8 |
| 20260506032548 | 20 | 0 | 0.0 | 3.2 | 0.00 | 0.00 | 0.00 | 54 | 1013.7 |
| 20260506032047 | 20 | 0 | 0.0 | 3.2 | 0.00 | 0.00 | 0.00 | 53 | 1013.6 |
| 20260506031552 | 20 | 0 | 0.0 | 3.2 | 0.00 | 0.00 | 0.00 | 53 | 1013.6 |
| 20260506031046 | 20 | 0 | 0.0 | 3.2 | 0.00 | 0.00 | 0.00 | 52 | 1013.7 |
| 20260506030546 | 20 | 0 | 0.0 | 4.8 | 0.00 | 0.00 | 0.00 | 51 | 1013.8 |
| 20260506025548 | 20 | 248 | 0.0 | 4.8 | 0.00 | 0.00 | 0.00 | 51 | 1013.9 |
| 20260506025047 | 20 | 0 | 0.0 | 1.6 | 0.00 | 0.00 | 0.00 | 53 | 1013.9 |
| 20260506024555 | 20 | 0 | 0.0 | 1.6 | 0.00 | 0.00 | 0.00 | 51 | 1013.9 |
| 20260506024047 | 20 | 0 | 0.0 | 3.2 | 0.00 | 0.00 | 0.00 | 52 | 1014.1 |
| 20260506023547 | 20 | 0 | 0.0 | 3.2 | 0.00 | 0.00 | 0.00 | 53 | 1014.0 |
| 20260506023051 | 20 | 0 | 0.0 | 3.2 | 0.00 | 0.00 | 0.00 | 53 | 1013.9 |
| 20260506022548 | 20 | 0 | 0.0 | 1.6 | 0.00 | 0.00 | 0.00 | 54 | 1013.8 |
| 20260506022048 | 20 | 0 | 0.0 | 1.6 | 0.00 | 0.00 | 0.00 | 53 | 1013.8 |
| 20260506021559 | 20 | 0 | 0.0 | 4.8 | 0.00 | 0.00 | 0.00 | 53 | 1013.7 |
| 20260506021048 | 20 | 0 | 0.0 | 4.8 | 0.00 | 0.00 | 0.00 | 53 | 1013.8 |
| 20260506020549 | 21 | 0 | 0.0 | 1.6 | 0.00 | 0.00 | 0.00 | 52 | 1013.7 |
| 20260506020054 | 21 | 0 | 0.0 | 3.2 | 0.00 | 0.00 | 0.00 | 52 | 1013.5 |
| 20260506015547 | 21 | 0 | 0.0 | 3.2 | 0.00 | 0.00 | 0.00 | 51 | 1013.8 |
| 20260506015050 | 21 | 0 | 0.0 | 4.8 | 0.00 | 0.00 | 0.00 | 52 | 1013.6 |
| 20260506014559 | 21 | 0 | 0.0 | 4.8 | 0.00 | 0.00 | 0.00 | 52 | 1013.4 |
| 20260506014048 | 21 | 0 | 0.0 | 4.8 | 0.00 | 0.00 | 0.00 | 52 | 1013.7 |
| 20260506013548 | 21 | 0 | 0.0 | 1.6 | 0.00 | 0.00 | 0.00 | 52 | 1013.5 |
| 20260506013055 | 21 | 0 | 0.0 | 1.6 | 0.00 | 0.00 | 0.00 | 52 | 1013.7 |
| 20260506012548 | 21 | 0 | 0.0 | 1.6 | 0.00 | 0.00 | 0.00 | 51 | 1013.6 |
| 20260506012047 | 21 | 0 | 0.0 | 4.8 | 0.00 | 0.00 | 0.00 | 52 | 1013.6 |
| 20260506011553 | 21 | 269 | 0.0 | 8.0 | 0.00 | 0.00 | 0.00 | 52 | 1013.4 |
| 20260506011049 | 21 | 0 | 0.0 | 9.7 | 0.00 | 0.00 | 0.00 | 51 | 1013.2 |
| 20260506010547 | 21 | 0 | 0.0 | 9.7 | 0.00 | 0.00 | 0.00 | 52 | 1013.4 |
| 20260506010101 | 20 | 0 | 0.0 | 1.6 | 0.00 | 0.00 | 0.00 | 53 | 1013.3 |
| 20260506005548 | 21 | 0 | 0.0 | 1.6 | 0.00 | 0.00 | 0.00 | 53 | 1013.3 |
| 20260506005047 | 21 | 0 | 0.0 | 1.6 | 0.00 | 0.00 | 0.00 | 52 | 1013.4 |
| 20260506004555 | 21 | 0 | 0.0 | 1.6 | 0.00 | 0.00 | 0.00 | 51 | 1013.4 |
| 20260506004047 | 21 | 0 | 0.0 | 6.4 | 0.00 | 0.00 | 0.00 | 50 | 1013.4 |
| 20260506003547 | 22 | 0 | 0.0 | 6.4 | 0.00 | 0.00 | 0.00 | 48 | 1013.6 |
| 20260506003051 | 22 | 249 | 0.0 | 4.8 | 0.00 | 0.00 | 0.00 | 49 | 1013.7 |
| 20260506002548 | 22 | 0 | 0.0 | 4.8 | 0.00 | 0.00 | 0.00 | 48 | 1013.6 |
| 20260506002048 | 22 | 0 | 0.0 | 1.6 | 0.00 | 0.00 | 0.00 | 47 | 1013.7 |
| 20260506001553 | 22 | 0 | 0.0 | 3.2 | 0.00 | 0.00 | 0.00 | 47 | 1013.8 |
| 20260506001048 | 22 | 0 | 0.0 | 6.4 | 0.00 | 0.00 | 0.00 | 46 | 1013.8 |
| 20260506000547 | 23 | 253 | 0.0 | 6.4 | 0.00 | 0.00 | 0.00 | 45 | 1013.7 |
| 20260506000058 | 23 | 195 | 0.0 | 6.4 | 0.00 | 0.00 | 0.00 | 46 | 1013.6 |
| 20260505235549 | 23 | 250 | 0.0 | 6.4 | 0.00 | 0.00 | 0.00 | 45 | 1013.6 |
| 20260505235048 | 23 | 296 | 0.0 | 8.0 | 0.00 | 0.00 | 0.00 | 46 | 1013.5 |
| 20260505234546 | 23 | 240 | 0.0 | 8.0 | 0.00 | 0.00 | 0.00 | 44 | 1013.5 |
| 20260505234048 | 23 | 268 | 1.6 | 8.0 | 0.00 | 0.00 | 0.00 | 43 | 1013.6 |
| 20260505233547 | 23 | 253 | 0.0 | 9.7 | 0.00 | 0.00 | 0.00 | 43 | 1013.5 |
| 20260505233048 | 23 | 0 | 0.0 | 9.7 | 0.00 | 0.00 | 0.00 | 43 | 1013.5 |
| 20260505232547 | 23 | 0 | 0.0 | 11.3 | 0.00 | 0.00 | 0.00 | 43 | 1013.5 |
| 20260505232047 | 24 | 282 | 1.6 | 11.3 | 0.00 | 0.00 | 0.00 | 42 | 1013.5 |
| 20260505231547 | 24 | 265 | 3.2 | 11.3 | 0.00 | 0.00 | 0.00 | 41 | 1013.7 |
| 20260505231046 | 24 | 219 | 0.0 | 8.0 | 0.00 | 0.00 | 0.00 | 41 | 1013.5 |
| 20260505230547 | 24 | 248 | 1.6 | 9.7 | 0.00 | 0.00 | 0.00 | 42 | 1013.6 |
| 20260505230052 | 24 | 192 | 1.6 | 9.7 | 0.00 | 0.00 | 0.00 | 41 | 1013.2 |
| 20260505225547 | 23 | 267 | 0.0 | 8.0 | 0.00 | 0.00 | 0.00 | 42 | 1013.4 |
| 20260505225048 | 24 | 0 | 0.0 | 9.7 | 0.00 | 0.00 | 0.00 | 43 | 1013.4 |
| 20260505224553 | 24 | 228 | 1.6 | 11.3 | 0.00 | 0.00 | 0.00 | 42 | 1013.3 |
| 20260505224049 | 25 | 0 | 1.6 | 14.5 | 0.00 | 0.00 | 0.00 | 41 | 1013.4 |
| 20260505223547 | 25 | 259 | 3.2 | 14.5 | 0.00 | 0.00 | 0.00 | 39 | 1013.4 |
| 20260505223054 | 24 | 252 | 0.0 | 8.0 | 0.00 | 0.00 | 0.00 | 40 | 1013.3 |
| 20260505222547 | 24 | 0 | 0.0 | 8.0 | 0.00 | 0.00 | 0.00 | 40 | 1013.3 |
| 20260505222047 | 24 | 246 | 0.0 | 3.2 | 0.00 | 0.00 | 0.00 | 43 | 1013.3 |
| 20260505221600 | 24 | 0 | 0.0 | 4.8 | 0.00 | 0.00 | 0.00 | 41 | 1013.4 |
| 20260505221050 | 25 | 237 | 0.0 | 12.9 | 0.00 | 0.00 | 0.00 | 40 | 1013.4 |
| 20260505220548 | 25 | 0 | 3.2 | 12.9 | 0.00 | 0.00 | 0.00 | 39 | 1013.3 |
| 20260505220050 | 25 | 227 | 1.6 | 12.9 | 0.00 | 0.00 | 0.00 | 39 | 1013.4 |
| 20260505215548 | 25 | 0 | 1.6 | 9.7 | 0.00 | 0.00 | 0.00 | 39 | 1013.1 |
| 20260505215047 | 25 | 96 | 1.6 | 11.3 | 0.00 | 0.00 | 0.00 | 41 | 1013.0 |
| 20260505214555 | 25 | 105 | 1.6 | 11.3 | 0.00 | 0.00 | 0.00 | 40 | 1013.1 |
| 20260505214050 | 26 | 225 | 3.2 | 11.3 | 0.00 | 0.00 | 0.00 | 38 | 1013.3 |
| 20260505213547 | 26 | 202 | 3.2 | 11.3 | 0.00 | 0.00 | 0.00 | 37 | 1013.3 |
| 20260505213054 | 26 | 253 | 1.6 | 12.9 | 0.00 | 0.00 | 0.00 | 38 | 1013.2 |
| 20260505212547 | 26 | 0 | 4.8 | 12.9 | 0.00 | 0.00 | 0.00 | 37 | 1013.3 |
| 20260505212047 | 27 | 267 | 1.6 | 9.7 | 0.00 | 0.00 | 0.00 | 37 | 1013.4 |
| 20260505211551 | 26 | 236 | 3.2 | 9.7 | 0.00 | 0.00 | 0.00 | 39 | 1013.4 |
| 20260505211047 | 26 | 250 | 0.0 | 9.7 | 0.00 | 0.00 | 0.00 | 39 | 1013.5 |
| 20260505210546 | 26 | 88 | 1.6 | 17.7 | 0.00 | 0.00 | 0.00 | 41 | 1013.5 |
| 20260505210052 | 27 | 165 | 3.2 | 17.7 | 0.00 | 0.00 | 0.00 | 38 | 1013.5 |
| 20260505205548 | 26 | 224 | 4.8 | 17.7 | 0.00 | 0.00 | 0.00 | 37 | 1013.4 |
| 20260505205047 | 26 | 250 | 1.6 | 12.9 | 0.00 | 0.00 | 0.00 | 38 | 1013.5 |
| 20260505204554 | 26 | 226 | 3.2 | 14.5 | 0.00 | 0.00 | 0.00 | 40 | 1013.8 |
| 20260505204046 | 26 | 133 | 1.6 | 14.5 | 0.00 | 0.00 | 0.00 | 38 | 1013.8 |
| 20260505203546 | 26 | 215 | 3.2 | 11.3 | 0.00 | 0.00 | 0.00 | 38 | 1013.7 |
| 20260505203052 | 26 | 94 | 1.6 | 19.3 | 0.00 | 0.00 | 0.00 | 38 | 1013.7 |
| 20260505202546 | 26 | 226 | 4.8 | 19.3 | 0.00 | 0.00 | 0.00 | 38 | 1014.0 |
| 20260505202047 | 27 | 153 | 1.6 | 11.3 | 0.00 | 0.00 | 0.00 | 37 | 1013.9 |
| 20260505201555 | 26 | 229 | 3.2 | 8.0 | 0.00 | 0.00 | 0.00 | 40 | 1014.1 |
| 20260505201047 | 27 | 0 | 1.6 | 12.9 | 0.00 | 0.00 | 0.00 | 39 | 1014.1 |
| 20260505200548 | 26 | 269 | 3.2 | 14.5 | 0.00 | 0.00 | 0.00 | 38 | 1014.1 |
| 20260505200051 | 27 | 0 | 3.2 | 14.5 | 0.00 | 0.00 | 0.00 | 38 | 1014.1 |
| 20260505195547 | 26 | 257 | 1.6 | 6.4 | 0.00 | 0.00 | 0.00 | 42 | 1014.3 |
| 20260505195047 | 26 | 210 | 0.0 | 14.5 | 0.00 | 0.00 | 0.00 | 37 | 1014.4 |
| 20260505194558 | 27 | 340 | 1.6 | 14.5 | 0.00 | 0.00 | 0.00 | 39 | 1014.5 |
| 20260505194047 | 27 | 300 | 1.6 | 12.9 | 0.00 | 0.00 | 0.00 | 39 | 1014.7 |
| 20260505193546 | 26 | 221 | 1.6 | 14.5 | 0.00 | 0.00 | 0.00 | 39 | 1014.7 |
| 20260505193119 | 26 | 250 | 4.8 | 14.5 | 0.00 | 0.00 | 0.00 | 38 | 1014.9 |
| 20260505192547 | 26 | 263 | 3.2 | 11.3 | 0.00 | 0.00 | 0.00 | 41 | 1014.7 |
| 20260505192048 | 26 | 302 | 1.6 | 11.3 | 0.00 | 0.00 | 0.00 | 44 | 1014.8 |
| 20260505191559 | 25 | 260 | 3.2 | 9.7 | 0.00 | 0.00 | 0.00 | 45 | 1014.7 |
| 20260505191048 | 25 | 101 | 1.6 | 6.4 | 0.00 | 0.00 | 0.00 | 42 | 1014.7 |
| 20260505190548 | 25 | 274 | 1.6 | 6.4 | 0.00 | 0.00 | 0.00 | 44 | 1014.9 |
| 20260505190054 | 25 | 0 | 1.6 | 6.4 | 0.00 | 0.00 | 0.00 | 42 | 1014.8 |
| 20260505185547 | 25 | 93 | 1.6 | 6.4 | 0.00 | 0.00 | 0.00 | 45 | 1014.9 |
| 20260505185047 | 25 | 321 | 1.6 | 12.9 | 0.00 | 0.00 | 0.00 | 44 | 1015.0 |
| 20260505184556 | 25 | 241 | 3.2 | 16.1 | 0.00 | 0.00 | 0.00 | 43 | 1015.0 |
| 20260505184047 | 25 | 236 | 1.6 | 16.1 | 0.00 | 0.00 | 0.00 | 44 | 1015.0 |
| 20260505183547 | 25 | 323 | 1.6 | 14.5 | 0.00 | 0.00 | 0.00 | 44 | 1015.0 |
| 20260505183052 | 25 | 234 | 3.2 | 20.9 | 0.00 | 0.00 | 0.00 | 45 | 1015.1 |
| 20260505182548 | 25 | 0 | 3.2 | 20.9 | 0.00 | 0.00 | 0.00 | 43 | 1015.0 |
| 20260505182047 | 25 | 254 | 3.2 | 16.1 | 0.00 | 0.00 | 0.00 | 45 | 1015.1 |
| 20260505181553 | 25 | 221 | 1.6 | 12.9 | 0.00 | 0.00 | 0.00 | 46 | 1015.2 |
| 20260505181051 | 25 | 263 | 1.6 | 4.8 | 0.00 | 0.00 | 0.00 | 46 | 1015.3 |
| 20260505180546 | 25 | 265 | 0.0 | 4.8 | 0.00 | 0.00 | 0.00 | 45 | 1015.4 |
| 20260505180051 | 25 | 0 | 0.0 | 12.9 | 0.00 | 0.00 | 0.00 | 45 | 1015.6 |
| 20260505175548 | 25 | 238 | 1.6 | 14.5 | 0.00 | 0.00 | 0.00 | 43 | 1015.6 |
| 20260505175048 | 25 | 261 | 4.8 | 14.5 | 0.00 | 0.00 | 0.00 | 39 | 1015.8 |
| 20260505174553 | 26 | 238 | 3.2 | 12.9 | 0.00 | 0.00 | 0.00 | 43 | 1015.7 |
| 20260505174049 | 26 | 232 | 1.6 | 12.9 | 0.00 | 0.00 | 0.00 | 42 | 1015.6 |
| 20260505173547 | 25 | 213 | 4.8 | 12.9 | 0.00 | 0.00 | 0.00 | 45 | 1016.0 |
| 20260505173053 | 26 | 234 | 1.6 | 12.9 | 0.00 | 0.00 | 0.00 | 46 | 1016.0 |
| 20260505172547 | 26 | 243 | 1.6 | 12.9 | 0.00 | 0.00 | 0.00 | 47 | 1016.1 |
| 20260505172048 | 25 | 246 | 4.8 | 12.9 | 0.00 | 0.00 | 0.00 | 45 | 1016.1 |
| 20260505171554 | 25 | 285 | 1.6 | 16.1 | 0.00 | 0.00 | 0.00 | 45 | 1016.0 |
| 20260505171048 | 25 | 109 | 3.2 | 16.1 | 0.00 | 0.00 | 0.00 | 43 | 1016.0 |
| 20260505170549 | 25 | 194 | 3.2 | 14.5 | 0.00 | 0.00 | 0.00 | 43 | 1016.1 |
| 20260505170055 | 25 | 229 | 4.8 | 17.7 | 0.00 | 0.00 | 0.00 | 42 | 1016.1 |
| 20260505165548 | 24 | 288 | 1.6 | 17.7 | 0.00 | 0.00 | 0.00 | 44 | 1016.1 |
| 20260505165047 | 24 | 200 | 3.2 | 17.7 | 0.00 | 0.00 | 0.00 | 45 | 1016.2 |
| 20260505164557 | 24 | 298 | 1.6 | 17.7 | 0.00 | 0.00 | 0.00 | 45 | 1016.2 |
| 20260505164048 | 24 | 136 | 1.6 | 19.3 | 0.00 | 0.00 | 0.00 | 45 | 1016.0 |
| 20260505163548 | 24 | 113 | 4.8 | 22.5 | 0.00 | 0.00 | 0.00 | 43 | 1016.1 |
| 20260505163052 | 24 | 350 | 4.8 | 22.5 | 0.00 | 0.00 | 0.00 | 42 | 1015.9 |
| 20260505162548 | 25 | 40 | 1.6 | 14.5 | 0.00 | 0.00 | 0.00 | 41 | 1015.9 |
| 20260505162047 | 24 | 243 | 4.8 | 16.1 | 0.00 | 0.00 | 0.00 | 41 | 1016.1 |
| 20260505161552 | 24 | 237 | 4.8 | 16.1 | 0.00 | 0.00 | 0.00 | 42 | 1016.0 |
| 20260505161049 | 24 | 226 | 4.8 | 16.1 | 0.00 | 0.00 | 0.00 | 41 | 1016.2 |
| 20260505160547 | 24 | 217 | 3.2 | 14.5 | 0.00 | 0.00 | 0.00 | 46 | 1016.0 |
| 20260505153108 | 22 | 123 | 3.2 | 11.3 | 0.00 | 0.00 | 0.00 | 53 | 1016.4 |
| 20260505152548 | 23 | 0 | 0.0 | 12.9 | 0.00 | 0.00 | 0.00 | 50 | 1016.4 |
| 20260505152046 | 23 | 328 | 1.6 | 12.9 | 0.00 | 0.00 | 0.00 | 53 | 1016.4 |
| 20260505151558 | 23 | 257 | 1.6 | 11.3 | 0.00 | 0.00 | 0.00 | 53 | 1016.3 |
| 20260505151050 | 22 | 0 | 0.0 | 4.8 | 0.00 | 0.00 | 0.00 | 51 | 1016.2 |
| 20260505150549 | 22 | 211 | 0.0 | 3.2 | 0.00 | 0.00 | 0.00 | 55 | 1016.3 |
| 20260505140546 | 20 | 240 | 0.0 | 1.6 | 0.00 | 0.00 | 0.00 | 64 | 1016.3 |
| 20260505130116 | 15 | 0 | 0.0 | 3.2 | 0.00 | 0.00 | 0.00 | 78 | 1016.0 |
| 20260505124608 | 13 | 0 | 0.0 | 1.6 | 0.00 | 0.00 | 0.00 | 84 | 1015.8 |
| 20260505124049 | 12 | 0 | 0.0 | 0.0 | 0.00 | 0.00 | 0.00 | 86 | 1015.8 |
| 20260505123552 | 12 | 0 | 0.0 | 0.0 | 0.00 | 0.00 | 0.00 | 86 | 1015.8 |
| 20260505123115 | 12 | 0 | 0.0 | 0.0 | 0.00 | 0.00 | 0.00 | 87 | 1015.6 |
| 20260505122549 | 12 | 0 | 0.0 | 1.6 | 0.00 | 0.00 | 0.00 | 87 | 1015.5 |
| 20260505122047 | 11 | 0 | 0.0 | 1.6 | 0.00 | 0.00 | 0.00 | 87 | 1015.4 |
| 20260505121549 | 11 | 0 | 0.0 | 1.6 | 0.00 | 0.00 | 0.00 | 88 | 1015.4 |
| 20260505121052 | 11 | 0 | 0.0 | 1.6 | 0.00 | 0.00 | 0.00 | 88 | 1015.3 |
| 20260505120548 | 11 | 0 | 0.0 | 1.6 | 0.00 | 0.00 | 0.00 | 89 | 1015.4 |
| 20260505120101 | 11 | 0 | 0.0 | 1.6 | 0.00 | 0.00 | 0.00 | 88 | 1015.5 |
| 20260505115546 | 10 | 0 | 0.0 | 1.6 | 0.00 | 0.00 | 0.00 | 88 | 1015.5 |
| 20260505115047 | 10 | 0 | 0.0 | 1.6 | 0.00 | 0.00 | 0.00 | 88 | 1015.6 |
| 20260505114553 | 10 | 346 | 0.0 | 1.6 | 0.00 | 0.00 | 0.00 | 88 | 1015.4 |
| 20260505114047 | 10 | 0 | 0.0 | 1.6 | 0.00 | 0.00 | 0.00 | 89 | 1015.4 |
| 20260505113552 | 10 | 0 | 0.0 | 1.6 | 0.00 | 0.00 | 0.00 | 89 | 1015.3 |
| 20260505113059 | 10 | 0 | 0.0 | 1.6 | 0.00 | 0.00 | 0.00 | 89 | 1015.1 |
| 20260505112548 | 10 | 0 | 0.0 | 1.6 | 0.00 | 0.00 | 0.00 | 90 | 1015.1 |
| 20260505112048 | 10 | 0 | 0.0 | 1.6 | 0.00 | 0.00 | 0.00 | 89 | 1015.1 |
| 20260505111553 | 10 | 0 | 0.0 | 1.6 | 0.00 | 0.00 | 0.00 | 89 | 1014.9 |
| 20260505111048 | 9 | 0 | 0.0 | 1.6 | 0.00 | 0.00 | 0.00 | 88 | 1014.7 |
| 20260505110547 | 9 | 0 | 0.0 | 1.6 | 0.00 | 0.00 | 0.00 | 89 | 1014.9 |
| 20260505102048 | 10 | 0 | 0.0 | 1.6 | 0.00 | 0.00 | 0.00 | 89 | 1014.7 |
| 20260505101557 | 10 | 0 | 0.0 | 1.6 | 0.00 | 0.00 | 0.00 | 88 | 1014.7 |
| 20260505101047 | 10 | 0 | 0.0 | 1.6 | 0.00 | 0.00 | 0.00 | 87 | 1014.7 |
| 20260505100547 | 10 | 0 | 0.0 | 1.6 | 0.00 | 0.00 | 0.00 | 87 | 1014.7 |
| 20260505100056 | 10 | 0 | 0.0 | 1.6 | 0.00 | 0.00 | 0.00 | 87 | 1014.9 |
| 20260505095548 | 10 | 0 | 0.0 | 0.0 | 0.00 | 0.00 | 0.00 | 87 | 1015.0 |
| 20260505095047 | 10 | 0 | 0.0 | 0.0 | 0.00 | 0.00 | 0.00 | 87 | 1015.1 |
| 20260505094556 | 10 | 0 | 0.0 | 0.0 | 0.00 | 0.00 | 0.00 | 87 | 1015.0 |
| 20260505094047 | 10 | 0 | 0.0 | 0.0 | 0.00 | 0.00 | 0.00 | 87 | 1015.0 |
| 20260505093547 | 10 | 0 | 0.0 | 1.6 | 0.00 | 0.00 | 0.00 | 87 | 1014.7 |
| 20260505093058 | 10 | 0 | 0.0 | 1.6 | 0.00 | 0.00 | 0.00 | 87 | 1014.9 |
| 20260505092548 | 10 | 0 | 0.0 | 1.6 | 0.00 | 0.00 | 0.00 | 87 | 1014.9 |
| 20260505092048 | 10 | 0 | 0.0 | 1.6 | 0.00 | 0.00 | 0.00 | 86 | 1014.7 |
| 20260505091618 | 10 | 0 | 0.0 | 1.6 | 0.00 | 0.00 | 0.00 | 86 | 1014.8 |
| 20260505091047 | 10 | 0 | 0.0 | 1.6 | 0.00 | 0.00 | 0.00 | 86 | 1014.7 |
| 20260505090547 | 10 | 0 | 0.0 | 1.6 | 0.00 | 0.00 | 0.00 | 86 | 1015.0 |
| 20260505090119 | 10 | 0 | 0.0 | 0.0 | 0.00 | 0.00 | 0.00 | 86 | 1015.2 |
| 20260505085548 | 10 | 0 | 0.0 | 0.0 | 0.00 | 0.00 | 0.00 | 86 | 1015.0 |
| 20260505085051 | 10 | 0 | 0.0 | 0.0 | 0.00 | 0.00 | 0.00 | 85 | 1015.1 |
| 20260505084607 | 10 | 0 | 0.0 | 0.0 | 0.00 | 0.00 | 0.00 | 85 | 1015.0 |
| 20260505084047 | 10 | 0 | 0.0 | 0.0 | 0.00 | 0.00 | 0.00 | 85 | 1015.2 |
| 20260505083551 | 10 | 0 | 0.0 | 0.0 | 0.00 | 0.00 | 0.00 | 85 | 1015.1 |
| 20260505083105 | 10 | 0 | 0.0 | 0.0 | 0.00 | 0.00 | 0.00 | 85 | 1015.1 |
| 20260505082547 | 10 | 0 | 0.0 | 0.0 | 0.00 | 0.00 | 0.00 | 85 | 1014.9 |
| 20260505082047 | 10 | 0 | 0.0 | 0.0 | 0.00 | 0.00 | 0.00 | 85 | 1015.0 |
| 20260505081559 | 10 | 0 | 0.0 | 0.0 | 0.00 | 0.00 | 0.00 | 85 | 1014.9 |
| 20260505081047 | 10 | 0 | 0.0 | 0.0 | 0.00 | 0.00 | 0.00 | 84 | 1015.0 |
| 20260505080551 | 10 | 0 | 0.0 | 0.0 | 0.00 | 0.00 | 0.00 | 84 | 1015.0 |
| 20260505080059 | 10 | 0 | 0.0 | 0.0 | 0.00 | 0.00 | 0.00 | 83 | 1014.9 |
| 20260505075548 | 10 | 0 | 0.0 | 1.6 | 0.00 | 0.00 | 0.00 | 83 | 1015.1 |
| 20260505075048 | 10 | 0 | 0.0 | 1.6 | 0.00 | 0.00 | 0.00 | 83 | 1014.9 |
| 20260505074549 | 10 | 0 | 0.0 | 1.6 | 0.00 | 0.00 | 0.00 | 83 | 1015.1 |
| 20260505074048 | 10 | 0 | 0.0 | 1.6 | 0.00 | 0.00 | 0.00 | 83 | 1015.0 |
| 20260505073548 | 10 | 0 | 0.0 | 1.6 | 0.00 | 0.00 | 0.00 | 83 | 1015.0 |
| 20260505073055 | 10 | 0 | 0.0 | 1.6 | 0.00 | 0.00 | 0.00 | 83 | 1015.1 |
| 20260505072546 | 10 | 0 | 0.0 | 0.0 | 0.00 | 0.00 | 0.00 | 82 | 1015.0 |
| 20260505072046 | 10 | 0 | 0.0 | 0.0 | 0.00 | 0.00 | 0.00 | 82 | 1015.1 |
| 20260505071603 | 10 | 0 | 0.0 | 1.6 | 0.00 | 0.00 | 0.00 | 82 | 1015.1 |
| 20260505071052 | 10 | 0 | 0.0 | 1.6 | 0.00 | 0.00 | 0.00 | 82 | 1015.2 |
| 20260505070548 | 11 | 0 | 0.0 | 1.6 | 0.00 | 0.00 | 0.00 | 82 | 1015.0 |
| 20260505070054 | 11 | 0 | 0.0 | 1.6 | 0.00 | 0.00 | 0.00 | 82 | 1015.1 |
| 20260505065548 | 11 | 0 | 0.0 | 1.6 | 0.00 | 0.00 | 0.00 | 82 | 1015.2 |
| 20260505065047 | 11 | 0 | 0.0 | 1.6 | 0.00 | 0.00 | 0.00 | 82 | 1015.0 |
| 20260505064550 | 11 | 0 | 0.0 | 1.6 | 0.00 | 0.00 | 0.00 | 81 | 1015.0 |
| 20260505064051 | 11 | 0 | 0.0 | 0.0 | 0.00 | 0.00 | 0.00 | 81 | 1015.1 |
| 20260505063550 | 11 | 0 | 0.0 | 0.0 | 0.00 | 0.00 | 0.00 | 81 | 1015.0 |
| 20260505063053 | 11 | 0 | 0.0 | 0.0 | 0.00 | 0.00 | 0.00 | 81 | 1015.2 |
| 20260505062548 | 11 | 0 | 0.0 | 0.0 | 0.00 | 0.00 | 0.00 | 81 | 1015.3 |
| 20260505062047 | 11 | 0 | 0.0 | 0.0 | 0.00 | 0.00 | 0.00 | 81 | 1015.2 |
| 20260505061552 | 11 | 0 | 0.0 | 1.6 | 0.00 | 0.00 | 0.00 | 80 | 1015.3 |
| 20260505061047 | 11 | 0 | 0.0 | 1.6 | 0.00 | 0.00 | 0.00 | 80 | 1015.3 |
| 20260505060548 | 11 | 346 | 0.0 | 1.6 | 0.00 | 0.00 | 0.00 | 80 | 1015.2 |
| 20260505060058 | 11 | 346 | 0.0 | 1.6 | 0.00 | 0.00 | 0.00 | 79 | 1015.2 |
| 20260505055548 | 11 | 0 | 0.0 | 0.0 | 0.00 | 0.00 | 0.00 | 80 | 1015.2 |
| 20260505055046 | 11 | 0 | 0.0 | 0.0 | 0.00 | 0.00 | 0.00 | 79 | 1015.3 |
| 20260505054553 | 11 | 0 | 0.0 | 0.0 | 0.00 | 0.00 | 0.00 | 79 | 1015.2 |
| 20260505054048 | 11 | 0 | 0.0 | 0.0 | 0.00 | 0.00 | 0.00 | 79 | 1015.2 |
| 20260505053546 | 11 | 0 | 0.0 | 0.0 | 0.00 | 0.00 | 0.00 | 79 | 1015.3 |
| 20260505053059 | 11 | 0 | 0.0 | 0.0 | 0.00 | 0.00 | 0.00 | 79 | 1015.4 |
| 20260505052547 | 11 | 0 | 0.0 | 0.0 | 0.00 | 0.00 | 0.00 | 78 | 1015.4 |
| 20260505052047 | 11 | 0 | 0.0 | 0.0 | 0.00 | 0.00 | 0.00 | 78 | 1015.3 |
| 20260505051556 | 11 | 0 | 0.0 | 0.0 | 0.00 | 0.00 | 0.00 | 78 | 1015.4 |
| 20260505051048 | 12 | 0 | 0.0 | 0.0 | 0.00 | 0.00 | 0.00 | 78 | 1015.5 |
| 20260505050548 | 12 | 0 | 0.0 | 0.0 | 0.00 | 0.00 | 0.00 | 77 | 1015.4 |